Language: 


Des rapports , des résumés tant et plus, au choix de chacun....


Données statistiques de la station
Quotidien Rapport Janvier 30, 2018 Unités:  Anglais    Métrique   les deux
« Précédent Jour
Suivant Jour »
Quotidien Hebdomadaire Mensuel Annuel Actuel
  Haut: Bas: Moyen:
Température: TemperatureC °F 0.1 °F 5.7 °F
Pt de rosée: DewpointC °F 0.0 °F 5.1 °F
Humidité: Humidity % 78 % 94 %
Vitesse du vent: WindSpeedKMH mph 0.0 mph 1.5 mph
Rafales: WindSpeedGustKMH mph - -
Vent:- - SSW
Pression: PressurehPa in 1018.2 in -
Précipitation: 0.3 in    
Historical Graphs
 
 
Données statistiques pour Janvier 30, 2018
Heure Température Point de rosée Pression Vent Vitesse du vent Refales Humidité Pluie (taux horaire)
TemperatureC °F DewpointC °F PressurehPa in Calm     Humidity % HourlyPrecipMM in
00:03 4.3 °F 4.0 °F 1030.0 in Calm   2.1 mph 97 % 0.0 in
00:08 4.6 °F 5.0 °F 1030.0 in Calm   5.5 mph 98 % 0.0 in
00:13 4.8 °F 5.0 °F 1030.0 in Calm   5.5 mph 98 % 0.0 in
00:18 4.8 °F 5.0 °F 1030.0 in Calm   3.5 mph 98 % 0.0 in
00:23 4.8 °F 5.0 °F 1030.0 in Calm   2.6 mph 98 % 0.0 in
00:28 4.6 °F 5.0 °F 1030.0 in Calm   1.8 mph 98 % 0.0 in
00:33 4.6 °F 5.0 °F 1030.0 in Calm     98 % 0.0 in
00:38 4.6 °F 5.0 °F 1030.0 in Calm     98 % 0.0 in
00:43 4.4 °F 4.0 °F 1030.0 in Calm     98 % 0.0 in
00:48 4.1 °F 4.0 °F 1030.0 in Calm     98 % 0.0 in
00:53 4.0 °F 4.0 °F 1030.0 in Calm     98 % 0.0 in
00:58 4.0 °F 4.0 °F 1030.0 in Calm     98 % 0.0 in
01:03 4.0 °F 4.0 °F 1030.0 in Calm     98 % 0.0 in
01:08 4.0 °F 4.0 °F 1030.0 in Calm   3.5 mph 98 % 0.0 in
01:13 4.0 °F 4.0 °F 1030.0 in Calm   4.3 mph 98 % 0.0 in
01:18 4.0 °F 4.0 °F 1030.0 in Calm   4.3 mph 98 % 0.0 in
01:23 4.0 °F 4.0 °F 1030.0 in WNW 2.1 mph 2.1 mph 98 % 0.0 in
01:28 4.1 °F 4.0 °F 1030.0 in Calm   4.7 mph 98 % 0.0 in
01:33 4.0 °F 4.0 °F 1030.0 in Calm   4.7 mph 98 % 0.0 in
01:38 3.8 °F 4.0 °F 1030.0 in Calm   1.8 mph 98 % 0.0 in
01:43 3.6 °F 4.0 °F 1030.0 in Calm   1.4 mph 98 % 0.0 in
01:48 3.3 °F 3.0 °F 1030.0 in Calm     98 % 0.0 in
01:53 3.3 °F 3.0 °F 1030.0 in Calm   6.1 mph 98 % 0.0 in
01:58 3.3 °F 3.0 °F 1030.0 in Calm   6.1 mph 98 % 0.0 in
02:03 3.3 °F 3.0 °F 1030.0 in Calm   6.1 mph 98 % 0.0 in
02:08 3.3 °F 3.0 °F 1030.0 in Calm   4.7 mph 98 % 0.0 in
02:13 3.2 °F 3.0 °F 1030.0 in Calm   1.4 mph 98 % 0.0 in
02:19 3.3 °F 3.0 °F 1030.0 in Calm   4.3 mph 98 % 0.0 in
02:24 3.4 °F 3.0 °F 1030.0 in Calm   5.0 mph 98 % 0.0 in
02:29 3.3 °F 3.0 °F 1030.0 in Calm   5.8 mph 98 % 0.0 in
02:34 3.3 °F 3.0 °F 1030.0 in Calm   5.8 mph 98 % 0.0 in
02:39 3.1 °F 3.0 °F 1030.0 in Calm   3.2 mph 98 % 0.0 in
02:44 2.8 °F 3.0 °F 1030.0 in Calm     98 % 0.0 in
02:49 2.7 °F 3.0 °F 1030.0 in Calm     98 % 0.0 in
02:54 2.6 °F 3.0 °F 1030.0 in Calm     98 % 0.0 in
02:59 2.6 °F 3.0 °F 1030.0 in Calm     98 % 0.0 in
03:04 2.8 °F 3.0 °F 1030.0 in Calm   5.0 mph 98 % 0.0 in
03:09 2.7 °F 3.0 °F 1030.0 in West 3.5 mph 6.9 mph 98 % 0.0 in
03:14 2.6 °F 3.0 °F 1030.0 in NW 3.2 mph 6.9 mph 98 % 0.0 in
03:15 2.6 °F 3.0 °F 1030.0 in WNW 5.0 mph 6.9 mph 98 % 0.0 in
03:20 2.6 °F 3.0 °F 1030.0 in Calm   5.5 mph 98 % 0.0 in
03:25 2.7 °F 3.0 °F 1030.0 in Calm   4.3 mph 98 % 0.0 in
03:30 2.8 °F 3.0 °F 1030.0 in Calm     98 % 0.0 in
03:35 2.4 °F 3.0 °F 1030.0 in Calm     98 % 0.0 in
03:40 2.3 °F 3.0 °F 1030.0 in Calm     98 % 0.0 in
03:45 2.0 °F 2.0 °F 1030.0 in Calm     98 % 0.0 in
03:50 1.8 °F 2.0 °F 1030.0 in Calm     98 % 0.0 in
03:55 1.7 °F 2.0 °F 1030.0 in Calm     98 % 0.0 in
04:01 1.5 °F 2.0 °F 1029.0 in Calm   3.5 mph 98 % 0.0 in
04:06 1.4 °F 1.0 °F 1029.0 in Calm   3.5 mph 98 % 0.0 in
04:11 1.3 °F 1.0 °F 1029.0 in Calm     98 % 0.0 in
04:16 1.3 °F 1.0 °F 1029.0 in Calm     98 % 0.0 in
04:21 1.3 °F 1.0 °F 1029.0 in Calm     98 % 0.0 in
04:26 1.4 °F 1.0 °F 1029.0 in Calm     98 % 0.0 in
04:31 1.4 °F 1.0 °F 1029.0 in Calm     98 % 0.0 in
04:36 1.3 °F 1.0 °F 1029.0 in Calm     98 % 0.0 in
04:41 1.1 °F 1.0 °F 1029.0 in Calm     98 % 0.0 in
04:46 1.0 °F 1.0 °F 1030.0 in Calm     98 % 0.0 in
04:51 1.0 °F 1.0 °F 1030.0 in Calm     98 % 0.0 in
04:56 1.1 °F 1.0 °F 1030.0 in Calm   4.3 mph 98 % 0.0 in
05:01 1.6 °F 2.0 °F 1029.0 in Calm   4.3 mph 98 % 0.0 in
05:06 1.6 °F 2.0 °F 1029.0 in Calm     98 % 0.0 in
05:11 1.6 °F 2.0 °F 1029.0 in Calm     98 % 0.0 in
05:16 1.4 °F 1.0 °F 1029.0 in Calm     98 % 0.0 in
05:21 1.2 °F 1.0 °F 1029.0 in Calm     98 % 0.0 in
05:26 1.1 °F 1.0 °F 1029.0 in Calm     98 % 0.0 in
05:31 1.2 °F 1.0 °F 1029.0 in Calm     98 % 0.0 in
05:36 1.2 °F 1.0 °F 1029.0 in Calm     98 % 0.0 in
05:41 1.0 °F 1.0 °F 1029.0 in Calm     98 % 0.0 in
05:46 0.9 °F 1.0 °F 1029.0 in Calm     98 % 0.0 in
05:51 1.1 °F 1.0 °F 1029.0 in Calm   4.7 mph 98 % 0.0 in
05:56 1.0 °F 1.0 °F 1029.0 in Calm   4.7 mph 98 % 0.0 in
06:01 1.0 °F 1.0 °F 1029.0 in Calm     98 % 0.0 in
06:06 1.1 °F 1.0 °F 1029.0 in WNW 1.8 mph 4.0 mph 98 % 0.0 in
06:11 1.3 °F 1.0 °F 1029.0 in Calm   4.0 mph 98 % 0.0 in
06:16 1.4 °F 1.0 °F 1029.0 in Calm   3.5 mph 98 % 0.0 in
06:21 1.4 °F 1.0 °F 1029.0 in Calm   4.3 mph 98 % 0.0 in
06:27 1.5 °F 2.0 °F 1029.0 in Calm   4.3 mph 98 % 0.0 in
06:32 1.5 °F 2.0 °F 1030.0 in Calm   5.0 mph 98 % 0.0 in
06:37 1.3 °F 1.0 °F 1030.0 in Calm   5.0 mph 98 % 0.0 in
06:42 1.0 °F 1.0 °F 1030.0 in Calm     98 % 0.0 in
06:47 0.9 °F 1.0 °F 1029.0 in Calm     98 % 0.0 in
06:52 0.7 °F 1.0 °F 1029.0 in Calm     98 % 0.0 in
06:57 0.5 °F 1.0 °F 1029.0 in Calm     98 % 0.0 in
07:02 0.4 °F 1.0 °F 1029.0 in Calm     98 % 0.0 in
07:07 0.4 °F 1.0 °F 1029.0 in Calm     98 % 0.0 in
07:12 0.6 °F 1.0 °F 1029.0 in West 4.3 mph 5.0 mph 98 % 0.0 in
07:17 0.7 °F 1.0 °F 1029.0 in Calm   5.0 mph 98 % 0.0 in
07:22 0.6 °F 1.0 °F 1029.0 in Calm   4.3 mph 98 % 0.0 in
07:27 0.4 °F 1.0 °F 1029.0 in Calm     98 % 0.0 in
07:32 0.4 °F 1.0 °F 1029.0 in Calm     98 % 0.0 in
07:37 0.3 °F 1.0 °F 1029.0 in Calm     98 % 0.0 in
07:42 0.2 °F 0.0 °F 1029.0 in Calm     98 % 0.0 in
07:47 0.1 °F 0.0 °F 1029.0 in Calm     98 % 0.0 in
07:52 0.1 °F 0.0 °F 1029.0 in Calm     98 % 0.0 in
07:57 0.1 °F 0.0 °F 1029.0 in Calm     98 % 0.0 in
08:02 0.1 °F 0.0 °F 1030.0 in Calm   5.5 mph 98 % 0.0 in
08:07 0.2 °F 0.0 °F 1030.0 in Calm   5.5 mph 98 % 0.0 in
08:12 0.1 °F 0.0 °F 1030.0 in Calm   1.4 mph 98 % 0.0 in
08:17 0.1 °F 0.0 °F 1029.0 in Calm     98 % 0.0 in
08:22 0.2 °F 0.0 °F 1029.0 in Calm     98 % 0.0 in
08:27 0.2 °F 0.0 °F 1029.0 in Calm     98 % 0.0 in
08:32 0.4 °F 1.0 °F 1029.0 in Calm     98 % 0.0 in
08:37 0.4 °F 1.0 °F 1029.0 in Calm     98 % 0.0 in
08:42 0.4 °F 1.0 °F 1029.0 in Calm   3.2 mph 98 % 0.0 in
08:47 0.5 °F 1.0 °F 1030.0 in Calm   3.2 mph 98 % 0.0 in
08:52 0.6 °F 1.0 °F 1030.0 in Calm   3.2 mph 98 % 0.0 in
08:57 0.8 °F 1.0 °F 1030.0 in Calm   3.2 mph 98 % 0.0 in
09:03 0.9 °F 1.0 °F 1030.0 in Calm     98 % 0.0 in
09:08 0.9 °F 1.0 °F 1030.0 in Calm     98 % 0.0 in
09:13 0.9 °F 1.0 °F 1030.0 in Calm   1.4 mph 98 % 0.0 in
09:18 1.1 °F 1.0 °F 1030.0 in Calm   3.5 mph 98 % 0.0 in
09:23 1.2 °F 1.0 °F 1030.0 in Calm   3.5 mph 98 % 0.0 in
09:28 1.2 °F 1.0 °F 1030.0 in Calm     98 % 0.0 in
09:33 1.3 °F 1.0 °F 1029.0 in Calm     98 % 0.0 in
09:38 1.4 °F 1.0 °F 1029.0 in Calm   1.4 mph 98 % 0.0 in
09:43 1.6 °F 2.0 °F 1029.0 in Calm   1.4 mph 98 % 0.0 in
09:48 1.8 °F 2.0 °F 1030.0 in Calm   1.4 mph 98 % 0.0 in
09:53 2.0 °F 2.0 °F 1030.0 in Calm     98 % 0.0 in
09:58 2.1 °F 2.0 °F 1030.0 in Calm   2.6 mph 98 % 0.0 in
10:03 2.3 °F 3.0 °F 1029.0 in Calm   2.6 mph 98 % 0.0 in
10:08 2.6 °F 3.0 °F 1029.0 in Calm     98 % 0.0 in
10:13 2.8 °F 3.0 °F 1029.0 in Calm   6.9 mph 98 % 0.0 in
10:18 2.8 °F 3.0 °F 1029.0 in Calm   6.9 mph 98 % 0.0 in
10:23 3.1 °F 3.0 °F 1029.0 in Calm   1.4 mph 98 % 0.0 in
10:28 3.4 °F 3.0 °F 1029.0 in Calm     98 % 0.0 in
10:33 3.6 °F 4.0 °F 1029.0 in Calm     98 % 0.0 in
10:38 3.8 °F 4.0 °F 1029.0 in Calm     98 % 0.0 in
10:44 4.0 °F 4.0 °F 1029.0 in Calm     98 % 0.0 in
10:49 4.1 °F 4.0 °F 1029.0 in Calm   4.3 mph 98 % 0.3 in
10:54 4.3 °F 4.0 °F 1029.0 in Calm   4.3 mph 98 % 0.3 in
10:59 4.7 °F 5.0 °F 1029.0 in Calm     98 % 0.3 in
11:04 4.9 °F 5.0 °F 1029.0 in Calm     98 % 0.3 in
11:09 5.3 °F 6.0 °F 1029.0 in Calm     98 % 0.3 in
11:14 5.4 °F 6.0 °F 1029.0 in Calm   1.8 mph 98 % 0.3 in
11:19 5.8 °F 6.0 °F 1029.0 in Calm   1.8 mph 98 % 0.3 in
11:24 6.1 °F 6.0 °F 1029.0 in Calm   1.8 mph 98 % 0.3 in
11:29 6.5 °F 7.0 °F 1029.0 in Calm   1.8 mph 98 % 0.3 in
11:34 7.0 °F 7.0 °F 1029.0 in Calm     98 % 0.3 in
11:39 7.2 °F 7.0 °F 1029.0 in Calm     98 % 0.3 in
11:44 7.4 °F 7.0 °F 1029.0 in Calm     98 % 0.3 in
11:49 7.6 °F 8.0 °F 1029.0 in Calm   1.4 mph 98 % 0.0 in
11:54 8.1 °F 8.0 °F 1029.0 in Calm   1.4 mph 98 % 0.0 in
11:59 8.3 °F 9.0 °F 1029.0 in Calm     98 % 0.0 in
12:04 8.5 °F 9.0 °F 1029.0 in Calm     98 % 0.0 in
12:09 8.7 °F 9.0 °F 1029.0 in Calm   1.4 mph 98 % 0.0 in
12:10 8.7 °F 9.0 °F 1029.0 in Calm   1.4 mph 98 % 0.0 in
12:15 9.0 °F 9.0 °F 1029.0 in Calm   1.4 mph 98 % 0.0 in
12:20 9.2 °F 9.0 °F 1029.0 in Calm     98 % 0.0 in
12:26 9.4 °F 9.0 °F 1029.0 in Calm     98 % 0.0 in
12:31 9.6 °F 10.0 °F 1029.0 in Calm   1.4 mph 98 % 0.0 in
12:36 9.8 °F 10.0 °F 1029.0 in SW 4.0 mph 7.9 mph 98 % 0.0 in
12:41 9.9 °F 10.0 °F 1029.0 in Calm   7.9 mph 98 % 0.0 in
12:46 10.1 °F 10.0 °F 1029.0 in Calm   6.9 mph 98 % 0.0 in
12:51 10.3 °F 10.0 °F 1029.0 in Calm   7.2 mph 97 % 0.0 in
12:56 10.4 °F 10.0 °F 1029.0 in Calm   7.2 mph 96 % 0.0 in
13:01 10.6 °F 10.0 °F 1028.0 in Calm   2.1 mph 95 % 0.0 in
13:06 10.7 °F 10.0 °F 1028.0 in SSW 4.7 mph 6.4 mph 94 % 0.0 in
13:11 10.9 °F 10.0 °F 1028.0 in SSW 5.0 mph 6.4 mph 93 % 0.0 in
13:16 10.9 °F 10.0 °F 1028.0 in SSE 9.3 mph 11.1 mph 92 % 0.0 in
13:21 10.8 °F 9.0 °F 1028.0 in Calm   11.1 mph 89 % 0.0 in
13:26 10.8 °F 9.0 °F 1028.0 in Calm   9.7 mph 87 % 0.0 in
13:31 10.9 °F 9.0 °F 1027.0 in SSW 1.4 mph 9.7 mph 85 % 0.0 in
13:36 10.8 °F 9.0 °F 1027.0 in Calm   7.9 mph 85 % 0.0 in
13:41 10.5 °F 8.0 °F 1027.0 in Calm   4.0 mph 84 % 0.0 in
13:46 10.6 °F 8.0 °F 1027.0 in Calm   4.7 mph 84 % 0.0 in
13:51 10.9 °F 9.0 °F 1027.0 in Calm   6.9 mph 84 % 0.0 in
13:56 11.1 °F 9.0 °F 1027.0 in Calm   6.9 mph 84 % 0.0 in
14:01 11.3 °F 9.0 °F 1026.0 in SSW 6.4 mph 7.9 mph 83 % 0.0 in
14:06 11.0 °F 8.0 °F 1026.0 in Calm   7.9 mph 82 % 0.0 in
14:11 10.9 °F 8.0 °F 1026.0 in Calm   5.8 mph 80 % 0.0 in
14:16 10.6 °F 7.0 °F 1027.0 in SSW 3.2 mph 8.7 mph 78 % 0.0 in
14:21 10.5 °F 7.0 °F 1027.0 in Calm   8.7 mph 79 % 0.0 in
14:26 10.4 °F 7.0 °F 1027.0 in Calm   6.1 mph 79 % 0.0 in
14:31 10.2 °F 7.0 °F 1026.0 in South 1.4 mph 9.0 mph 79 % 0.0 in
14:36 10.0 °F 6.0 °F 1026.0 in Calm   9.0 mph 78 % 0.0 in
14:41 10.0 °F 6.0 °F 1026.0 in Calm   10.1 mph 78 % 0.0 in
14:46 9.9 °F 6.0 °F 1026.0 in Calm   10.1 mph 78 % 0.0 in
14:51 9.9 °F 6.0 °F 1026.0 in Calm   5.8 mph 78 % 0.0 in
14:56 9.8 °F 6.0 °F 1026.0 in Calm   6.1 mph 78 % 0.0 in
15:01 9.8 °F 6.0 °F 1026.0 in Calm   7.9 mph 78 % 0.0 in
15:06 9.7 °F 6.0 °F 1026.0 in South 4.3 mph 7.9 mph 79 % 0.0 in
15:12 9.6 °F 6.0 °F 1026.0 in SSE 5.8 mph 9.3 mph 78 % 0.0 in
15:17 9.6 °F 6.0 °F 1026.0 in SSW 6.9 mph 9.3 mph 79 % 0.0 in
15:22 9.6 °F 6.0 °F 1026.0 in Calm   9.3 mph 79 % 0.0 in
15:27 9.5 °F 6.0 °F 1026.0 in South 5.8 mph 9.3 mph 79 % 0.0 in
15:32 9.3 °F 6.0 °F 1026.0 in SSW 5.0 mph 5.8 mph 80 % 0.0 in
15:37 9.3 °F 6.0 °F 1026.0 in Calm   5.8 mph 80 % 0.0 in
15:42 9.4 °F 6.0 °F 1026.0 in SSE 7.6 mph 7.6 mph 81 % 0.0 in
15:47 10.3 °F 8.0 °F 1023.9 in Calm   9.7 mph 82 % 0.0 in
15:52 10.3 °F 7.0 °F 1023.9 in Calm   9.7 mph 81 % 0.0 in
15:57 10.2 °F 7.0 °F 1023.9 in SSE 1.4 mph 9.3 mph 80 % 0.0 in
16:02 10.2 °F 7.0 °F 1024.9 in Calm   5.5 mph 80 % 0.0 in
16:07 10.1 °F 7.0 °F 1024.9 in Calm   4.0 mph 79 % 0.0 in
16:12 9.9 °F 7.0 °F 1024.9 in Calm     80 % 0.0 in
16:17 9.8 °F 7.0 °F 1024.9 in Calm     80 % 0.0 in
16:22 9.7 °F 7.0 °F 1024.9 in Calm     81 % 0.0 in
16:27 9.6 °F 7.0 °F 1024.9 in Calm   2.1 mph 81 % 0.0 in
16:32 9.4 °F 6.0 °F 1023.9 in Calm   2.6 mph 81 % 0.0 in
16:37 9.4 °F 6.0 °F 1023.9 in Calm   2.6 mph 81 % 0.0 in
16:42 9.3 °F 7.0 °F 1023.9 in Calm     82 % 0.0 in
16:47 9.3 °F 7.0 °F 1024.9 in Calm     82 % 0.0 in
16:52 9.2 °F 7.0 °F 1024.9 in Calm     83 % 0.0 in
16:57 9.2 °F 7.0 °F 1024.9 in Calm     83 % 0.0 in
17:02 9.1 °F 6.0 °F 1024.9 in Calm   2.1 mph 83 % 0.0 in
17:07 9.0 °F 6.0 °F 1024.9 in Calm   2.1 mph 83 % 0.0 in
17:12 9.0 °F 7.0 °F 1024.9 in Calm   1.4 mph 84 % 0.0 in
17:17 8.9 °F 7.0 °F 1023.9 in Calm   3.5 mph 84 % 0.0 in
17:22 8.8 °F 7.0 °F 1023.9 in Calm   3.5 mph 84 % 0.0 in
17:27 8.7 °F 7.0 °F 1023.9 in Calm     85 % 0.0 in
17:32 8.6 °F 7.0 °F 1024.9 in Calm     85 % 0.0 in
17:37 8.6 °F 7.0 °F 1024.9 in Calm     85 % 0.0 in
17:42 8.5 °F 7.0 °F 1024.9 in Calm     85 % 0.0 in
17:47 8.5 °F 7.0 °F 1023.9 in Calm     86 % 0.0 in
17:53 8.4 °F 6.0 °F 1023.9 in Calm     86 % 0.0 in
17:58 8.3 °F 6.0 °F 1023.9 in Calm     86 % 0.0 in
18:03 8.3 °F 6.0 °F 1022.9 in Calm   1.4 mph 86 % 0.0 in
18:08 8.3 °F 7.0 °F 1022.9 in Calm   1.4 mph 87 % 0.0 in
18:13 8.3 °F 7.0 °F 1022.9 in Calm   6.1 mph 87 % 0.0 in
18:18 8.3 °F 7.0 °F 1022.9 in Calm   6.9 mph 87 % 0.0 in
18:23 8.3 °F 7.0 °F 1022.9 in Calm   6.9 mph 88 % 0.0 in
18:28 8.3 °F 7.0 °F 1022.9 in Calm   5.0 mph 88 % 0.0 in
18:33 8.3 °F 7.0 °F 1022.9 in Calm   6.9 mph 88 % 0.0 in
18:38 8.3 °F 7.0 °F 1022.9 in Calm   6.9 mph 89 % 0.0 in
18:43 8.2 °F 7.0 °F 1022.9 in South 2.1 mph 4.7 mph 89 % 0.0 in
18:48 8.1 °F 7.0 °F 1022.9 in Calm   4.7 mph 89 % 0.0 in
18:53 7.9 °F 6.0 °F 1022.9 in Calm   4.0 mph 90 % 0.0 in
18:58 7.7 °F 6.0 °F 1022.9 in Calm   6.9 mph 90 % 0.0 in
19:03 7.5 °F 6.0 °F 1021.9 in Calm   6.9 mph 91 % 0.0 in
19:08 7.5 °F 6.0 °F 1021.9 in South 6.9 mph 7.6 mph 91 % 0.0 in
19:13 7.4 °F 6.0 °F 1021.9 in Calm   7.6 mph 92 % 0.0 in
19:18 7.3 °F 6.0 °F 1021.9 in Calm   6.9 mph 92 % 0.0 in
19:23 7.2 °F 6.0 °F 1021.9 in South 5.5 mph 7.9 mph 93 % 0.0 in
19:28 7.1 °F 6.0 °F 1021.9 in Calm   7.9 mph 93 % 0.0 in
19:33 7.1 °F 6.0 °F 1021.9 in Calm   7.6 mph 94 % 0.0 in
19:38 7.1 °F 6.0 °F 1021.9 in Calm   7.6 mph 94 % 0.0 in
19:44 7.0 °F 6.0 °F 1021.9 in Calm   7.2 mph 95 % 0.0 in
19:49 6.9 °F 6.0 °F 1021.9 in South 5.0 mph 6.1 mph 95 % 0.0 in
19:54 6.9 °F 7.0 °F 1021.9 in Calm   6.1 mph 96 % 0.0 in
19:59 7.0 °F 7.0 °F 1021.9 in SW 5.0 mph 7.9 mph 96 % 0.0 in
20:04 7.1 °F 7.0 °F 1021.9 in SSW 5.0 mph 7.9 mph 96 % 0.0 in
20:09 7.2 °F 7.0 °F 1021.9 in SSW 3.2 mph 8.7 mph 97 % 0.0 in
20:14 7.3 °F 7.0 °F 1021.9 in Calm   9.7 mph 97 % 0.0 in
20:19 7.4 °F 7.0 °F 1021.9 in Calm   9.7 mph 98 % 0.0 in
20:24 7.5 °F 8.0 °F 1021.9 in SSW 6.4 mph 7.9 mph 98 % 0.0 in
20:29 7.6 °F 8.0 °F 1021.9 in WSW 6.9 mph 8.7 mph 98 % 0.0 in
20:34 7.7 °F 8.0 °F 1021.9 in SSW 5.8 mph 8.7 mph 98 % 0.0 in
20:39 7.8 °F 8.0 °F 1021.9 in SW 6.1 mph 9.3 mph 98 % 0.0 in
20:44 7.8 °F 8.0 °F 1020.9 in SW 5.8 mph 9.3 mph 98 % 0.0 in
20:49 7.9 °F 8.0 °F 1020.9 in SSW 4.3 mph 9.0 mph 98 % 0.0 in
20:54 7.9 °F 8.0 °F 1020.9 in SW 7.9 mph 10.5 mph 98 % 0.0 in
20:59 8.0 °F 8.0 °F 1020.9 in SSW 8.7 mph 10.5 mph 98 % 0.0 in
21:04 8.1 °F 8.0 °F 1020.9 in SW 9.0 mph 12.6 mph 98 % 0.0 in
21:09 8.1 °F 8.0 °F 1020.9 in SW 6.9 mph 12.6 mph 98 % 0.0 in
21:14 8.2 °F 8.0 °F 1020.9 in WSW 9.0 mph 11.6 mph 98 % 0.0 in
21:19 8.2 °F 8.0 °F 1020.9 in WSW 9.3 mph 13.0 mph 98 % 0.0 in
21:24 8.3 °F 9.0 °F 1020.9 in SSW 8.7 mph 13.0 mph 98 % 0.0 in
21:29 8.3 °F 9.0 °F 1020.9 in SW 6.1 mph 13.0 mph 98 % 0.0 in
21:34 8.3 °F 9.0 °F 1020.9 in SSW 10.1 mph 13.0 mph 98 % 0.0 in
21:39 8.3 °F 9.0 °F 1020.9 in Calm   12.6 mph 98 % 0.0 in
21:44 8.3 °F 9.0 °F 1020.9 in SW 7.9 mph 11.9 mph 98 % 0.0 in
21:49 8.3 °F 9.0 °F 1020.9 in SW 7.9 mph 12.2 mph 98 % 0.0 in
21:54 8.3 °F 9.0 °F 1020.9 in Calm   12.2 mph 98 % 0.0 in
21:59 8.3 °F 9.0 °F 1020.9 in SSW 7.9 mph 9.3 mph 98 % 0.0 in
22:04 8.3 °F 9.0 °F 1020.9 in Calm   9.0 mph 98 % 0.0 in
22:09 8.3 °F 9.0 °F 1020.9 in SW 6.9 mph 8.7 mph 98 % 0.0 in
22:15 8.3 °F 9.0 °F 1018.8 in SSW 10.1 mph 10.8 mph 98 % 0.0 in
22:20 8.3 °F 9.0 °F 1018.8 in SSW 8.7 mph 11.9 mph 98 % 0.0 in
22:25 8.3 °F 9.0 °F 1018.8 in SSW 8.7 mph 11.9 mph 98 % 0.0 in
22:30 8.3 °F 9.0 °F 1018.8 in SW 9.0 mph 11.1 mph 98 % 0.0 in
22:35 8.3 °F 9.0 °F 1018.8 in SSW 9.0 mph 12.2 mph 98 % 0.0 in
22:40 8.4 °F 9.0 °F 1018.8 in SSW 6.4 mph 12.2 mph 98 % 0.0 in
22:45 8.4 °F 9.0 °F 1018.2 in SW 9.0 mph 12.2 mph 98 % 0.0 in
22:50 8.4 °F 9.0 °F 1018.2 in South 2.1 mph 12.2 mph 98 % 0.0 in
22:55 8.4 °F 9.0 °F 1018.2 in Calm   9.7 mph 98 % 0.0 in
23:00 8.4 °F 9.0 °F 1018.8 in SSW 6.9 mph 10.1 mph 98 % 0.0 in
23:05 8.4 °F 9.0 °F 1018.8 in Calm   13.0 mph 98 % 0.0 in
23:10 8.5 °F 9.0 °F 1018.8 in SSW 6.4 mph 13.0 mph 98 % 0.0 in
23:15 8.5 °F 9.0 °F 1018.8 in South 9.7 mph 13.0 mph 98 % 0.0 in
23:20 8.5 °F 9.0 °F 1018.8 in SW 6.1 mph 13.0 mph 98 % 0.0 in
23:25 8.6 °F 9.0 °F 1018.8 in SSW 8.7 mph 12.6 mph 98 % 0.0 in
23:30 8.7 °F 9.0 °F 1018.8 in SSW 10.1 mph 10.8 mph 98 % 0.0 in
23:35 8.8 °F 9.0 °F 1018.8 in SSW 9.7 mph 10.1 mph 98 % 0.0 in
23:40 8.8 °F 9.0 °F 1018.8 in SW 10.8 mph 14.0 mph 98 % 0.0 in
23:45 9.0 °F 9.0 °F 1018.2 in SW 10.1 mph 14.8 mph 98 % 0.0 in
23:50 9.1 °F 9.0 °F 1018.2 in SSW 11.6 mph 14.8 mph 98 % 0.0 in
23:55 9.2 °F 9.0 °F 1018.2 in SW 12.6 mph 15.1 mph 98 % 0.0 in
Le Gheer Warneton
Courtoisie de Weather Underground - 2.25 mb

Mise a jour : 24/02/2018 15:12:12
Généré par Cumulus 1.9.4 (1099)